Location: Unspecified
(0.0000°N, 0.0000°E)
Time: 12:07:52
(UTC+00:00)

Courier 1B Rocket - Pass Details

Date: 22 November 2019
Orbit: 920 x 1202 km, 28.2° (Epoch: 10 December)

Event Time Altitude Azimuth Distance (km) Brightness Sun altitude
Rises 09:24:30 0° 238° (WSW) 3,556 7.8 50.0°
Reaches altitude 10° 09:27:06 10° 237° (WSW) 2,606 7.2 50.5°
Maximum altitude 09:33:20 81° 149° (SSE) 936 6.2 51.8°
Drops below altitude 10° 09:39:43 10° 63° (ENE) 2,663 7.7 53.1°
Sets 09:42:24 0° 62° (ENE) 3,639 8.2 53.7°
